This is the latest recevied weather packets stored in our database for station/object KB1YYC. If no packets are shown the sender has not sent any weather packets the latest 10 day(s).
| Time | Temp. | Humidity | Pressure | Rain* | Wind** | Luminosity | Snow |
|---|---|---|---|---|---|---|---|
| 1778208150 | 7.78° C | 55% | 1008.1 hPa | 0 mm | - | 0 W/m² | - |
| 1778207847 | 7.78° C | 60% | 1008.1 hPa | 0 mm | - | 0 W/m² | - |
| 1778207544 | 8.33° C | 59% | 1007.9 hPa | 0 mm | - | 0 W/m² | - |
| 1778207240 | 8.33° C | 58% | 1007.9 hPa | 0 mm | - | 0 W/m² | - |
| 1778206937 | 8.33° C | 59% | 1007.9 hPa | 0 mm | - | 0 W/m² | - |
| 1778206633 | 8.89° C | 52% | 1007.6 hPa | 0 mm | - | 0 W/m² | - |
| 1778206329 | 8.89° C | 50% | 1007.9 hPa | 0 mm | - | 0 W/m² | - |
| 1778206027 | 8.89° C | 51% | 1007.6 hPa | 0 mm | - | 0 W/m² | - |
| 1778205421 | 9.44° C | 50% | 1007.7 hPa | 0 mm | - | 0 W/m² | - |
| 1778205118 | 9.44° C | 47% | 1007.5 hPa | 0 mm | - | 0 W/m² | - |
| 1778204814 | 8.89° C | 51% | 1007.4 hPa | 0 mm | - | 0 W/m² | - |
| 1778204510 | 8.89° C | 51% | 1007.6 hPa | 0 mm | - | 0 W/m² | - |
| 1778204207 | 8.89° C | 51% | 1007.5 hPa | 0 mm | - | 0 W/m² | - |
| 1778203903 | 8.89° C | 50% | 1007.2 hPa | 0 mm | - | 0 W/m² | - |
| 1778203601 | 8.89° C | 54% | 1007.3 hPa | 0 mm | - | 0 W/m² | - |
| 1778203298 | 8.89° C | 57% | 1007.3 hPa | 0 mm | - | 0 W/m² | - |
| 1778202996 | 8.33° C | 57% | 1007.4 hPa | 0 mm | - | 0 W/m² | - |
| 1778202693 | 7.78° C | 57% | 1007.3 hPa | 0 mm | - | 0 W/m² | - |
| 1778202390 | 7.78° C | 66% | 1007.2 hPa | 0 mm | - | 0 W/m² | - |
| 1778202088 | 7.78° C | 67% | 1006.8 hPa | 0 mm | - | 0 W/m² | - |
| 1778201785 | 7.78° C | 66% | 1006.9 hPa | 0 mm | - | 0 W/m² | - |
| 1778201481 | 8.33° C | 68% | 1006.7 hPa | 0 mm | - | 0 W/m² | - |
| 1778201177 | 8.33° C | 64% | 1006.6 hPa | 0 mm | - | 0 W/m² | - |
| 1778200874 | 8.33° C | 63% | 1006.5 hPa | 0 mm | - | 0 W/m² | - |
| 1778200570 | 8.33° C | 63% | 1006.5 hPa | 0 mm | - | 0 W/m² | - |
* Rain latest hour (hover to see other rain measurements)
** Current wind speed in m/s (hover to see current wind gust speed)